New Cumberland, PA

8:14 PM EST on February 25, 2017 (GMT -0500)
Capital City

Weather History for KCXY - July, 2013

Change the Weather History Date:

Sunday, July 28, 2013

  Actual Average Record
Temperature  
Mean Temperature 76 °F -  
Max Temperature 82 °F 82 °F 99 °F (1941)
Min Temperature 69 °F 64 °F 51 °F (1962)
Cooling Degree Days 10    
Growing Degree Days 26 (Base 50)    
Moisture  
Dew Point 67 °F    
Average Humidity 81    
Maximum Humidity 94    
Minimum Humidity 52    
Precipitation  
Precipitation 0.05 in - - ()
Sea Level Pressure  
Sea Level Pressure 29.92 in    
Wind  
Wind Speed 4 mph (South)    
Max Wind Speed 10 mph    
Max Gust Speed -    
Visibility 9 miles    
Events Rain    
Averages and records for this station are not official NWS values.
T = Trace of Precipitation, MM = Missing Value Source: NWS Daily Summary

Daily Weather History Graph

Daily Weather History Graph

Search for Another Location

Airport or City:

Trip Planner

Search our weather history database for the weather conditions in past years. The results will help you decide how hot, cold, wet, or windy it might be!

Date:

Astronomy

Jul. 28, 2013 Rise Set
Actual Time 6:01 AM EDT 8:25 PM EDT
Civil Twilight 5:30 AM EDT 8:56 PM EDT
Nautical Twilight 4:52 AM EDT 9:34 PM EDT
Astronomical Twilight 4:10 AM EDT 10:16 PM EDT
Moon 11:45 PM EDT (7/28) 12:42 PM EDT (7/28)
Length of Visible Light 15h 25m
Length of Day
14h 23m
Waning Gibbous, 61% of the Moon is Illuminated
Jul 28
Waning Gibbous
Jul 29
Last Quarter
Aug 6
New
Aug 14
First Quarter
Aug 20
Full

Hourly Weather History & Observations

Time (EDT) Temp. Heat Index Dew Point Humidity Pressure Visibility Wind Dir Wind Speed Gust Speed Precip Events Conditions
12:56 AM 71.1 °F - 68.0 °F 90% 29.92 in 9.0 mi South 6.9 mph - N/A   Mostly Cloudy
1:11 AM 71.6 °F - 68.0 °F 88% 29.92 in 2.0 mi South 9.2 mph - 0.01 in Rain Rain
1:20 AM 71.6 °F - 68.0 °F 88% 29.92 in 8.0 mi SSE 6.9 mph - 0.01 in Rain Light Rain
1:56 AM 70.0 °F - 68.0 °F 93% 29.91 in 9.0 mi South 8.1 mph - 0.01 in   Partly Cloudy
2:56 AM 70.0 °F - 68.0 °F 93% 29.90 in 8.0 mi Calm Calm - 0.01 in   Partly Cloudy
3:56 AM 70.0 °F - 68.0 °F 93% 29.90 in 7.0 mi Calm Calm - N/A   Scattered Clouds
4:03 AM 71.6 °F - 68.0 °F 88% 29.90 in 7.0 mi Calm Calm - N/A   Mostly Cloudy
4:41 AM 71.6 °F - 68.0 °F 88% 29.91 in 7.0 mi SE 4.6 mph - N/A   Overcast
4:56 AM 71.1 °F - 68.0 °F 90% 29.90 in 7.0 mi Calm Calm - N/A   Mostly Cloudy
5:13 AM 71.6 °F - 68.0 °F 88% 29.90 in 7.0 mi Calm Calm - N/A   Scattered Clouds
5:29 AM 69.8 °F - 68.0 °F 94% 29.91 in 6.0 mi Calm Calm - N/A   Mostly Cloudy
5:56 AM 71.1 °F - 68.0 °F 90% 29.91 in 8.0 mi Calm Calm - 0.01 in   Overcast
6:56 AM 71.1 °F - 68.0 °F 90% 29.93 in 7.0 mi Calm Calm - N/A   Overcast
7:39 AM 71.6 °F - 68.0 °F 88% 29.93 in 7.0 mi Calm Calm - N/A   Overcast
7:56 AM 71.1 °F - 68.0 °F 90% 29.93 in 7.0 mi SE 4.6 mph - 0.00 in Rain Light Rain
8:44 AM 71.6 °F - 68.0 °F 88% 29.92 in 7.0 mi SSE 3.5 mph - 0.00 in Rain Light Rain
8:56 AM 72.0 °F - 68.0 °F 87% 29.92 in 7.0 mi Calm Calm - 0.00 in   Mostly Cloudy
9:56 AM 73.0 °F - 69.1 °F 87% 29.91 in 10.0 mi Calm Calm - 0.01 in   Overcast
10:11 AM 73.4 °F - 68.0 °F 83% 29.90 in 10.0 mi SSE 4.6 mph - N/A   Overcast
10:45 AM 73.4 °F - 68.0 °F 83% 29.91 in 10.0 mi South 9.2 mph - N/A   Overcast
10:56 AM 73.9 °F - 69.1 °F 85% 29.92 in 10.0 mi South 5.8 mph - N/A   Overcast
11:20 AM 73.4 °F - 69.8 °F 88% 29.92 in 10.0 mi SSW 4.6 mph - N/A   Overcast
11:56 AM 75.0 °F - 68.0 °F 79% 29.92 in 10.0 mi SSW 3.5 mph - N/A   Overcast
12:56 PM 75.0 °F - 70.0 °F 84% 29.93 in 10.0 mi South 4.6 mph - 0.00 in Rain Light Rain
1:56 PM 77.0 °F - 69.1 °F 76% 29.92 in 10.0 mi SW 9.2 mph - 0.00 in   Mostly Cloudy
2:56 PM 80.1 °F 82.7 °F 68.0 °F 67% 29.90 in 10.0 mi SW 8.1 mph - 0.01 in   Partly Cloudy
3:56 PM 82.0 °F 83.8 °F 64.9 °F 56% 29.89 in 10.0 mi SSW 10.4 mph - N/A   Partly Cloudy
4:56 PM 82.0 °F 83.1 °F 63.0 °F 52% 29.89 in 10.0 mi South 5.8 mph - N/A   Clear
5:56 PM 80.1 °F 81.5 °F 63.0 °F 56% 29.89 in 10.0 mi SSW 4.6 mph - N/A   Clear
6:56 PM 81.0 °F 82.2 °F 63.0 °F 54% 29.90 in 10.0 mi SSW 6.9 mph - N/A   Clear
7:56 PM 80.1 °F 81.5 °F 63.0 °F 56% 29.90 in 10.0 mi SSE 3.5 mph - N/A   Clear
8:56 PM 75.9 °F - 66.0 °F 71% 29.92 in 10.0 mi ESE 3.5 mph - N/A   Clear
9:56 PM 73.0 °F - 66.9 °F 81% 29.94 in 10.0 mi Calm Calm - N/A   Scattered Clouds
10:56 PM 73.0 °F - 66.0 °F 79% 29.96 in 10.0 mi West 3.5 mph - N/A   Scattered Clouds
11:56 PM 71.1 °F - 66.0 °F 84% 29.98 in 10.0 mi West 4.6 mph - N/A   Partly Cloudy